time_stamp(utc),avg(mph),gust(mph),direction(deg),12m_air_temp(f),sonic_u(cm/s),sonic_v(cm/s),sonic_w(cm/s),pressure,2m_air_temp(f),pyranometer(W/m^2)
"2019-04-20 00:01:45+00",18.3,25.3,,59.9,-36,-767,-1,1007.01,59.6,0
"2019-04-20 00:06:45+00",18.3,25.3,,59.6,-9,-777,-33,1006.95,59.4,0
"2019-04-20 00:11:45+00",17.4,22.4,,59.4,-7,-742,1,1006.98,59.2,0
"2019-04-20 00:16:45+00",20.4,26.4,,59.4,-35,-839,-26,1007.03,59.2,0
"2019-04-20 00:21:45+00",20.4,25.4,,59.5,-32,-849,-27,1006.99,59.3,0
"2019-04-20 00:26:45+00",19.3,27.3,,59.6,6,-805,-21,1006.96,59.4,0
"2019-04-20 00:31:45+00",20.7,24.7,,59.6,73,-879,-20,1006.99,59.3,0
"2019-04-20 00:36:45+00",22.5,25.5,,59.4,112,-982,-30,1006.93,59.2,0
"2019-04-20 00:41:45+00",20.0,27.0,,59,102,-842,-18,1007.02,58.8,0
"2019-04-20 00:46:45+00",22.1,26.1,,58.6,131,-948,-19,1007.11,58.4,0
"2019-04-20 00:51:45+00",19.1,23.1,,58.3,121,-794,4,1007.12,58.2,0
"2019-04-20 00:56:45+00",21.1,26.1,,58.1,131,-906,-32,1007.13,58,0
"2019-04-20 01:01:45+00",17.8,21.8,,57.9,125,-750,2,1007.08,57.8,0
"2019-04-20 01:06:45+00",19.9,22.9,,57.8,120,-856,-23,1007.07,57.7,0
"2019-04-20 01:11:45+00",18.4,23.4,,57.8,104,-782,-6,1007.04,57.7,0
"2019-04-20 01:16:45+00",16.4,21.4,,57.3,114,-698,-1,1007.02,57.3,0
"2019-04-20 01:21:45+00",17.6,19.6,,57.1,115,-743,-9,1006.93,57,0
"2019-04-20 01:26:45+00",18.1,22.1,,56.9,137,-765,-17,1006.9,56.9,0
"2019-04-20 01:31:45+00",19.1,22.1,,56.8,154,-785,-10,1006.72,56.7,0
"2019-04-20 01:36:45+00",19.3,22.3,,56.8,154,-791,-39,1006.67,56.7,0
"2019-04-20 01:41:45+00",21.2,25.2,,57.1,148,-810,-51,1006.47,56.9,0
"2019-04-20 01:46:45+00",21.6,26.6,,57.2,74,-741,-97,1006.63,57,0
"2019-04-20 01:51:45+00",22.0,25.0,,57.5,-166,-314,-342,1006.58,57.3,0
"2019-04-20 01:56:45+00",21.7,26.7,,57.7,-62,-436,-251,1006.43,57.4,0
"2019-04-20 02:01:45+00",22.4,26.4,,57.9,-100,-475,-279,1006.56,57.6,0
"2019-04-20 02:06:45+00",23.6,26.6,,58.1,-611,350,-763,1006.52,57.8,0
"2019-04-20 02:11:45+00",22.4,26.4,,58.1,-1053,1133,-1163,1006.5,57.8,0
"2019-04-20 02:16:45+00",23.9,26.9,,58.2,-1577,2011,-1639,1006.46,57.9,0
"2019-04-20 02:21:45+00",22.3,26.3,,58,-1070,1199,-1171,1006.41,57.8,0
"2019-04-20 02:26:45+00",25.1,30.1,,58,-1196,1332,-1312,1006.27,57.7,0
"2019-04-20 02:31:45+00",24.1,30.1,,58,-1361,1697,-1462,1006.05,57.8,0
"2019-04-20 02:36:45+00",25.6,30.6,,58,-1645,2090,-1778,1005.97,57.7,0
"2019-04-20 02:41:45+00",24.6,29.6,,58,-1647,2089,-1665,1006.05,57.8,0
"2019-04-20 02:46:45+00",24.2,30.2,,58.1,-1424,1630,-1444,1006.2,57.8,0
"2019-04-20 02:51:45+00",23.8,28.8,,58.4,-1324,1437,-1373,1006.11,58,0
"2019-04-20 02:56:45+00",22.1,26.1,,58.1,-546,125,-599,1006.32,58,0
"2019-04-20 03:01:45+00",25.1,30.1,,58.2,-134,-661,-241,1006.2,57.9,0
"2019-04-20 03:06:45+00",23.2,28.2,,58.2,-241,-356,-354,1006.11,57.9,0
"2019-04-20 03:11:45+00",23.2,30.2,,58.2,-31,-794,-122,1006.09,58,0
"2019-04-20 03:16:45+00",23.4,28.4,,58.2,108,-969,-52,1006.04,57.9,0
"2019-04-20 03:21:45+00",24.1,31.1,,58.2,106,-1027,-32,1006.1,58,0
"2019-04-20 03:26:45+00",27.2,31.2,,58.3,204,-1155,-53,1005.95,58,0
"2019-04-20 03:31:45+00",23.7,30.7,,58.2,217,-983,-10,1005.66,58,0
"2019-04-20 03:36:45+00",22.4,28.4,,58.3,162,-982,-5,1005.69,58,0
"2019-04-20 03:41:45+00",28.4,33.4,,58.4,-566,818,2111,1005.63,58.1,0
"2019-04-20 03:46:45+00",32.2,39.2,,59.9,1146,830,1271,1005.69,59.2,0
"2019-04-20 03:51:45+00",34.7,46.7,,61.9,32,-908,286,1006.14,61.3,0
"2019-04-20 03:56:45+00",25.4,29.4,,60.4,-157,-1008,9,1006.28,60.1,0
"2019-04-20 04:01:45+00",25.7,28.7,,59.8,-180,-1046,-2,1006.42,59.6,0
"2019-04-20 04:06:45+00",25.9,30.9,,59.6,-234,-1091,22,1006.6,59.3,0
"2019-04-20 04:11:45+00",32.6,40.6,,60,-994,-2341,-670,1006.98,59.5,0
"2019-04-20 04:16:45+00",33.9,40.9,,61.3,-1858,-3000,-1035,1007.47,60.2,0
"2019-04-20 04:21:45+00",30.7,35.7,,61.9,-1876,-2978,-1069,1007.44,61.2,0
"2019-04-20 04:26:45+00",28.1,33.1,,61.6,-1689,-2439,-843,1007.18,61.1,0
"2019-04-20 04:31:45+00",26.2,30.2,,61.4,-1211,-1638,-444,1007.34,61,0
"2019-04-20 04:36:45+00",22.1,25.1,,61.5,-556,-826,2,1007.3,60.9,0
"2019-04-20 04:41:45+00",20.9,24.9,,61.7,-582,-893,-63,1007,61,0
"2019-04-20 04:46:45+00",18.6,21.6,,61.8,-404,-696,16,1006.78,61,0
"2019-04-20 04:51:45+00",18.1,21.1,,61.8,-530,-611,13,1006.74,61,0
"2019-04-20 04:56:45+00",18.0,20.0,,61.8,-503,-626,2,1006.85,61,0
"2019-04-20 05:01:45+00",15.8,17.8,,61.7,-409,-576,12,1007.06,61,0
"2019-04-20 05:06:45+00",12.8,15.8,,61.6,-290,-478,1,1006.87,60.8,0
"2019-04-20 05:11:45+00",12.1,13.1,,61.6,-379,-387,8,1006.93,60.8,0
"2019-04-20 05:16:45+00",14.8,16.8,,61.6,-418,-515,8,1006.88,60.8,0
"2019-04-20 05:21:45+00",16.4,18.4,,62.1,-408,-601,11,1006.76,61.2,0
"2019-04-20 05:26:45+00",17.9,20.9,,62.4,-394,-664,-8,1006.67,61.6,0
"2019-04-20 05:31:45+00",12.8,15.8,,62.6,-88,-544,4,1006.55,61.9,0
"2019-04-20 05:36:45+00",13.8,17.8,,62.1,-138,-587,-10,1006.46,61.6,0
"2019-04-20 05:41:45+00",12.0,15.0,,59.6,58,-511,-14,1006.03,59.3,0
"2019-04-20 05:46:45+00",9.3,13.3,,58.9,17,-405,-3,1005.55,58.5,0
"2019-04-20 05:51:45+00",10.6,12.6,,59.1,-35,-444,-15,1005.83,58.8,0
"2019-04-20 05:56:45+00",12.4,14.4,,58.8,65,-514,-8,1005.72,58.4,0
"2019-04-20 06:01:45+00",15.7,18.7,,59.2,162,-640,12,1005.57,58.8,0
"2019-04-20 06:06:45+00",17.0,22.0,,59.2,117,-718,-20,1005.56,58.8,0
"2019-04-20 06:11:45+00",16.5,20.5,,59.4,135,-646,30,1005.62,59,0
"2019-04-20 06:16:45+00",17.9,24.9,,59.2,138,-665,64,1005.44,58.9,0
"2019-04-20 06:21:45+00",23.0,26.0,,59.3,1090,388,740,1005.11,58.8,0
"2019-04-20 06:26:45+00",21.6,23.6,,58.7,370,-622,152,1005.03,58.2,0
"2019-04-20 06:31:45+00",17.5,22.5,,58.3,73,-754,-13,1005.13,57.9,0
"2019-04-20 06:36:45+00",17.0,20.0,,58.3,69,-720,-5,1005.39,58,0
"2019-04-20 06:41:45+00",18.1,22.1,,58.5,30,-761,-2,1005.51,58.1,0
"2019-04-20 06:46:45+00",18.3,22.3,,59,18,-760,-17,1005.57,58.6,0
"2019-04-20 06:51:45+00",17.1,22.1,,59,-19,-694,-8,1005.56,58.6,0
"2019-04-20 06:56:45+00",16.0,23.0,,59.4,-1,-660,3,1005.61,59,0
"2019-04-20 07:01:45+00",17.5,23.5,,59.3,18,-670,28,1005.53,58.9,0
"2019-04-20 07:06:45+00",20.6,24.6,,59.5,53,-629,123,1005.5,59,0
"2019-04-20 07:11:45+00",17.7,21.7,,59.3,-126,-717,13,1005.72,59,0
"2019-04-20 07:16:45+00",20.8,27.8,,59.4,-72,-685,112,1005.81,59,0
"2019-04-20 07:21:45+00",19.0,23.0,,59.2,-141,-757,-15,1005.87,58.8,0
"2019-04-20 07:26:45+00",21.4,28.4,,59.2,0,-529,246,1005.73,58.7,0
"2019-04-20 07:31:45+00",17.5,23.5,,59.5,-159,-734,32,1005.7,59,0
"2019-04-20 07:36:45+00",20.6,23.6,,59.7,-216,-873,-2,1005.6,59.1,0
"2019-04-20 07:41:45+00",16.5,20.5,,59.3,-117,-677,-7,1005.57,58.7,0
"2019-04-20 07:46:45+00",17.0,21.0,,58.8,-11,-697,-28,1005.47,58.2,0
"2019-04-20 07:51:45+00",14.7,18.7,,57.9,-8,-624,-33,1005.44,57.5,0
"2019-04-20 07:56:45+00",15.5,21.5,,58.1,-36,-648,-30,1005.45,57.6,0
"2019-04-20 08:01:45+00",18.5,25.5,,58.6,241,-493,142,1005.5,58.1,0
"2019-04-20 08:06:45+00",16.7,20.7,,58.5,52,-711,-10,1005.4,58.2,0
"2019-04-20 08:11:45+00",18.0,22.0,,58.4,149,-745,16,1005.15,58.1,0
"2019-04-20 08:16:45+00",16.5,19.5,,58.3,118,-680,5,1004.99,58,0
"2019-04-20 08:21:45+00",16.4,20.4,,58.1,125,-675,10,1005.07,57.8,0
"2019-04-20 08:26:45+00",16.3,20.3,,58.5,134,-690,-13,1005.07,58.1,0
"2019-04-20 08:31:45+00",16.2,20.2,,58.9,86,-666,-14,1005.12,58.4,0
"2019-04-20 08:36:45+00",15.7,19.7,,58.6,56,-668,-19,1005.18,58.3,0
"2019-04-20 08:41:45+00",14.9,19.9,,58.4,62,-624,-7,1005.23,58.1,0
"2019-04-20 08:46:45+00",14.8,18.8,,58.5,1,-611,-30,1005.31,58.2,0
"2019-04-20 08:51:45+00",16.4,21.4,,58.2,107,-663,6,1005.33,57.9,0
"2019-04-20 08:56:45+00",15.2,20.2,,57.9,72,-640,-13,1005.28,57.6,0
"2019-04-20 09:01:45+00",17.3,20.3,,57.7,77,-744,-27,1005.19,57.4,0
"2019-04-20 09:06:45+00",15.4,20.4,,57.7,80,-635,-3,1005.24,57.4,0
"2019-04-20 09:11:45+00",15.8,19.8,,57.4,65,-653,-10,1005.23,57.2,0
"2019-04-20 09:16:45+00",14.0,17.0,,57.3,78,-593,-18,1005.15,57.1,0
"2019-04-20 09:21:45+00",14.3,17.3,,57.3,85,-598,-13,1005.17,57.1,0
"2019-04-20 09:26:45+00",14.0,17.0,,57.3,120,-586,-21,1005.01,57.1,0
"2019-04-20 09:31:45+00",13.4,17.4,,57.4,90,-566,3,1004.98,57.1,0
"2019-04-20 09:36:45+00",15.3,18.3,,57.4,115,-652,-20,1004.96,57.2,0
"2019-04-20 09:41:45+00",12.8,15.8,,57.2,90,-537,10,1004.88,57,0
"2019-04-20 09:46:45+00",15.6,17.6,,57.2,137,-658,-37,1004.86,56.9,0
"2019-04-20 09:51:45+00",15.7,17.7,,56.9,166,-654,-17,1004.86,56.7,0
"2019-04-20 09:56:45+00",15.3,18.3,,56.7,157,-634,-11,1004.9,56.5,0
"2019-04-20 10:01:45+00",17.1,21.1,,56.7,210,-695,-4,1004.89,56.4,0
"2019-04-20 10:06:45+00",18.9,21.9,,56.7,211,-779,-9,1004.93,56.4,0
"2019-04-20 10:11:45+00",19.7,22.7,,56.9,297,-784,-23,1004.99,56.6,0
"2019-04-20 10:16:45+00",19.7,23.7,,57.1,312,-783,-62,1005.01,56.7,0
"2019-04-20 10:21:45+00",20.4,24.4,,57.4,446,-587,130,1005.11,57,0
"2019-04-20 10:26:45+00",17.2,20.2,,57.3,67,-689,18,1005.27,56.9,0
"2019-04-20 10:31:45+00",16.6,18.6,,57.2,30,-704,29,1005.2,56.8,0
"2019-04-20 10:36:45+00",18.8,21.8,,57.7,144,-714,51,1005.45,57.3,0
"2019-04-20 10:41:45+00",21.1,24.1,,57.9,477,-496,201,1005.34,57.4,0
"2019-04-20 10:46:45+00",22.0,28.0,,58.1,352,-726,66,1005.49,57.7,0
"2019-04-20 10:51:45+00",23.6,26.6,,58.4,918,-167,385,1005.38,57.9,0
"2019-04-20 10:56:45+00",26.6,31.6,,59,2075,819,784,1004.9,58.5,0
"2019-04-20 11:01:45+00",24.6,27.6,,59.2,1357,222,548,1005.23,58.7,0
"2019-04-20 11:06:45+00",24.9,29.9,,59.7,1065,-233,288,1004.95,59.1,0
"2019-04-20 11:11:45+00",30.7,36.7,,59.9,1663,-705,-200,1004.85,59.4,0
"2019-04-20 11:16:45+00",30.2,33.2,,59.9,2094,363,461,1004.84,59.4,0
"2019-04-20 11:21:45+00",27.6,31.6,,59.8,1765,423,583,1004.88,59.3,0
"2019-04-20 11:26:45+00",26.8,30.8,,59.6,2231,944,829,1005,59.1,0
"2019-04-20 11:31:45+00",29.1,33.1,,59.6,1240,-363,231,1005.33,59.1,0
"2019-04-20 11:36:45+00",26.6,32.6,,59.8,1704,-125,143,1005.12,59.4,0
"2019-04-20 11:41:45+00",25.8,28.8,,60,1156,-523,59,1005.15,59.6,0
"2019-04-20 11:46:45+00",22.8,28.8,,59.7,680,-312,316,1005.22,59.3,0
"2019-04-20 11:51:45+00",24.1,29.1,,59.6,892,-244,299,1005.23,59.2,0
"2019-04-20 11:56:45+00",23.1,27.1,,59.4,463,-942,-135,1005.21,59,0
"2019-04-20 12:01:45+00",23.6,28.6,,59.1,498,-923,-109,1005.21,58.7,0
"2019-04-20 12:06:45+00",22.9,26.9,,59.3,884,60,542,1005.21,58.9,0
"2019-04-20 12:11:45+00",24.8,35.8,,60.3,411,-491,237,1005.26,59.8,0
"2019-04-20 12:16:45+00",28.5,36.5,,59.9,54,-1228,-63,1005.33,59.3,0
"2019-04-20 12:21:45+00",26.5,32.5,,60.1,665,-464,326,1005.27,59.5,0
"2019-04-20 12:26:45+00",24.3,32.3,,59.9,375,-840,38,1005.31,59.4,0
"2019-04-20 12:31:45+00",25.3,31.3,,59.8,951,80,593,1005.23,59.2,0
"2019-04-20 12:36:45+00",24.8,29.8,,60.6,147,-943,52,1005.54,59.8,0
"2019-04-20 12:41:45+00",23.5,28.5,,61.2,247,-475,288,1005.77,60.4,0
"2019-04-20 12:46:45+00",20.5,26.5,,60.4,499,-5,481,1005.87,59.9,0
"2019-04-20 12:51:45+00",20.6,24.6,,60,11,-512,304,1005.68,59.5,0
"2019-04-20 12:56:45+00",17.0,21.0,,59.7,15,-645,49,1005.66,59.3,0
"2019-04-20 13:01:45+00",18.3,22.3,,59,85,-775,-16,1005.43,58.7,0
"2019-04-20 13:06:45+00",18.2,23.2,,58.8,-10,-756,22,1005.36,58.4,0
"2019-04-20 13:11:45+00",16.0,19.0,,58.8,58,-691,-1,1005.3,58.5,0
"2019-04-20 13:16:45+00",15.6,20.6,,58.6,67,-665,16,1005.32,58.2,0
"2019-04-20 13:21:45+00",15.2,19.2,,58.2,17,-641,-6,1005.43,57.9,0
"2019-04-20 13:26:45+00",15.9,18.9,,57.7,148,-669,-4,1005.35,57.6,5.8
"2019-04-20 13:31:45+00",21.0,24.0,,58.2,64,-892,-8,1005.69,57.9,19.9
"2019-04-20 13:36:45+00",24.5,32.5,,59.3,-10,-992,-14,1005.99,58.8,26.6
"2019-04-20 13:41:45+00",26.8,32.8,,59.4,189,-954,98,1005.72,58.9,74.7
"2019-04-20 13:46:45+00",25.7,29.7,,59,344,-741,188,1005.75,58.7,58.5
"2019-04-20 13:51:45+00",22.6,25.6,,58.5,173,-928,-1,1005.77,58.2,41.1
"2019-04-20 13:56:45+00",23.3,28.3,,57.8,138,-936,56,1005.78,57.6,10.7
"2019-04-20 14:01:45+00",22.6,27.6,,57.3,287,-933,-12,1005.69,57.2,20
"2019-04-20 14:06:45+00",22.5,26.5,,57.4,197,-939,0,1005.79,57.3,22.7
"2019-04-20 14:11:45+00",21.6,26.6,,57.7,98,-920,-11,1005.95,57.4,3.1
"2019-04-20 14:16:45+00",18.5,21.5,,57.4,116,-791,-14,1005.72,57.1,0.6
"2019-04-20 14:21:45+00",19.1,22.1,,57.5,73,-810,-15,1005.83,57.1,0.5
"2019-04-20 14:26:45+00",18.0,23.0,,57.5,108,-766,-3,1005.75,57.2,2.8
"2019-04-20 14:31:45+00",19.0,24.0,,57.3,161,-794,-6,1005.7,57,0.4
"2019-04-20 14:36:45+00",15.7,18.7,,57.1,85,-675,-5,1005.67,56.8,2.5
"2019-04-20 14:41:45+00",14.2,17.2,,56.9,71,-606,-14,1005.86,56.7,1.6
"2019-04-20 14:46:45+00",15.8,19.8,,56.8,111,-659,-10,1005.85,56.6,15.7
"2019-04-20 14:51:45+00",17.7,20.7,,57.1,99,-740,-24,1005.95,56.8,4.8
"2019-04-20 14:56:45+00",14.6,19.6,,57.3,68,-633,-3,1006.17,57,31.6
"2019-04-20 15:01:45+00",17.7,21.7,,57.6,75,-760,-11,1006.16,57.4,86
"2019-04-20 15:06:45+00",18.9,22.9,,58,75,-817,-21,1006.26,57.8,102.7
"2019-04-20 15:11:45+00",19.2,22.2,,57.7,104,-824,-32,1006.24,57.8,86.1
"2019-04-20 15:16:45+00",19.4,23.4,,57.4,143,-820,-26,1006.34,57.5,59.7
"2019-04-20 15:21:45+00",18.4,21.4,,57.3,179,-753,-4,1005.97,57.5,153.5
"2019-04-20 15:26:45+00",21.1,24.1,,57.4,239,-878,-17,1006.02,57.6,108.6
"2019-04-20 15:31:45+00",19.8,25.8,,57.3,-912,1124,-1012,1006.23,57.5,102.6
"2019-04-20 15:36:45+00",21.0,26.0,,57.1,163,-893,-6,1006.39,57.4,79.9
"2019-04-20 15:41:45+00",22.8,28.8,,57.2,208,-971,-27,1006.17,57.4,113.3
"2019-04-20 15:46:45+00",22.0,25.0,,57,162,-933,-19,1006.26,57.4,168.9
"2019-04-20 15:51:45+00",21.4,27.4,,56.7,128,-899,-30,1006.28,57,65.6
"2019-04-20 15:56:45+00",19.5,26.5,,56.4,85,-833,-18,1006.19,56.5,41.7
"2019-04-20 16:01:45+00",19.1,25.1,,56.2,135,-791,127,1006.47,56.3,18.9
"2019-04-20 16:06:45+00",18.4,24.4,,56.3,99,-677,112,1006.4,56.3,65.8
"2019-04-20 16:11:45+00",15.8,23.8,,56.6,104,-824,107,1006.28,56.7,77.7
"2019-04-20 16:16:45+00",19.7,25.7,,57.1,104,-479,294,1006.59,57.2,94.1
"2019-04-20 16:21:45+00",18.4,25.4,,57.2,63,-651,208,1006.35,57.3,108.1
"2019-04-20 16:26:45+00",16.7,25.7,,57.4,88,-692,219,1006.45,57.6,185.6
"2019-04-20 16:31:45+00",20.6,26.6,,57.6,-187,-798,238,1006.46,57.9,165
"2019-04-20 16:36:45+00",24.2,30.2,,57.8,-220,-657,204,1006.28,58.2,227.8
"2019-04-20 16:41:45+00",22.6,25.6,,57.8,-335,-957,49,1006.45,58.2,196.3
"2019-04-20 16:46:45+00",20.5,27.5,,58,183,-1672,522,1006.48,58.4,197.1
"2019-04-20 16:51:45+00",23.6,29.6,,57.8,-234,-1246,152,1006.48,58.4,197.4
"2019-04-20 16:56:45+00",19.8,24.8,,57.7,495,-2184,794,1006.45,58.3,176.9
"2019-04-20 17:01:45+00",17.1,21.1,,57.9,889,-2669,1132,1006.33,58.4,182.7
"2019-04-20 17:06:45+00",19.9,23.9,,57.9,106,-1545,431,1006.32,58.5,212.2
"2019-04-20 17:11:45+00",19.3,27.3,,58.1,-210,-794,-5,1006.28,59,362.1
"2019-04-20 17:16:45+00",19.8,25.8,,58.2,-243,-821,13,1006.2,59.1,238.5
"2019-04-20 17:21:45+00",20.4,26.4,,58.1,-336,-812,18,1006.2,58.8,157.2
"2019-04-20 17:26:45+00",20.0,25.0,,58.2,-319,-792,-8,1006.33,58.7,145.3
"2019-04-20 17:31:45+00",21.2,25.2,,58.1,-410,-818,-7,1006.48,58.6,133.1
"2019-04-20 17:36:45+00",20.6,24.6,,58.3,-370,-812,-2,1006.55,58.8,200.8
"2019-04-20 17:41:45+00",20.2,23.2,,58.1,-362,-797,1,1006.62,58.8,231.6
"2019-04-20 17:46:45+00",20.0,25.0,,58.4,-308,-815,0,1006.71,59.1,174
"2019-04-20 17:51:45+00",19.2,24.2,,58.3,-190,-790,11,1006.76,59,182.2
"2019-04-20 17:56:45+00",21.0,29.0,,58,-242,-866,-31,1006.7,58.6,183.1
"2019-04-20 18:01:45+00",19.7,25.7,,57.7,-244,-820,0,1006.67,58.3,179.8
"2019-04-20 18:06:45+00",16.1,21.1,,57.6,-115,-685,-20,1006.83,58.1,151.2
"2019-04-20 18:11:45+00",16.9,22.9,,57.1,-67,-719,-29,1006.7,57.5,129.6
"2019-04-20 18:16:45+00",13.8,19.8,,56.7,-39,-585,-10,1006.73,57.2,135.4
"2019-04-20 18:21:45+00",17.0,21.0,,56.5,-15,-708,-30,1006.73,56.9,161.8
"2019-04-20 18:26:45+00",18.5,22.5,,56.2,10,-778,-44,1006.62,56.7,196.4
"2019-04-20 18:31:45+00",17.2,21.2,,56.1,48,-731,-59,1006.61,57,390
"2019-04-20 18:36:45+00",20.0,24.0,,55.6,0,-841,-49,1006.59,56.6,260.2
"2019-04-20 18:41:45+00",15.3,19.3,,55.8,5,-656,-31,1006.67,56.7,259.9
"2019-04-20 18:46:45+00",17.8,22.8,,55.9,54,-748,-13,1006.88,56.8,378.7
"2019-04-20 18:51:45+00",15.1,20.1,,56.5,-74,-638,-12,1006.88,57.5,368.6
"2019-04-20 18:56:45+00",18.6,25.6,,56.9,29,-782,-47,1006.82,57.7,356.8
"2019-04-20 19:01:45+00",14.7,19.7,,56.9,-27,-619,16,1006.79,57.8,473.8
"2019-04-20 19:06:45+00",16.9,22.9,,57.6,34,-706,-23,1006.81,58.5,369.5
"2019-04-20 19:11:45+00",15.9,20.9,,57.1,8,-673,2,1006.78,58.2,226.1
"2019-04-20 19:16:45+00",18.0,24.0,,56.9,62,-757,-12,1006.89,57.9,482.6
"2019-04-20 19:21:45+00",21.6,26.6,,56.8,82,-926,-29,1006.77,58.1,452.4
"2019-04-20 19:26:45+00",18.4,22.4,,57.2,100,-779,-6,1007.01,58.5,448.8
"2019-04-20 19:31:45+00",21.0,26.0,,57.1,49,-898,-32,1006.82,58.2,503.6
"2019-04-20 19:36:45+00",22.6,25.6,,57.1,31,-958,-49,1006.9,58.3,386.8
"2019-04-20 19:41:45+00",20.3,25.3,,57.2,70,-863,-30,1006.86,58.5,439
"2019-04-20 19:46:45+00",22.8,27.8,,57.2,103,-977,-46,1006.79,58.5,458.8
"2019-04-20 19:51:45+00",23.6,28.6,,57.6,86,-1002,-27,1007.07,58.9,392.9
"2019-04-20 19:56:45+00",24.5,30.5,,57.4,182,-1035,-32,1007.07,58.7,308.3
"2019-04-20 20:01:45+00",20.6,25.6,,57.1,182,-849,2,1007.08,58.1,225.7
"2019-04-20 20:06:45+00",23.7,28.7,,57.2,176,-1004,-29,1007.06,58.2,228.7
"2019-04-20 20:11:45+00",20.1,27.1,,57.3,115,-855,-14,1007.3,58.3,345.7
"2019-04-20 20:16:45+00",19.5,25.5,,57.2,99,-807,-18,1007.21,58.2,158.6
"2019-04-20 20:21:45+00",20.5,25.5,,57.3,107,-881,-29,1007.39,58,281.2
"2019-04-20 20:26:45+00",19.7,23.7,,57,36,-825,-34,1007.26,57.8,99.4
"2019-04-20 20:31:45+00",19.1,24.1,,56.7,101,-805,-17,1007.31,57.3,131
"2019-04-20 20:36:45+00",19.7,23.7,,56.7,27,-832,-20,1007.29,57.2,158.2
"2019-04-20 20:41:45+00",17.3,22.3,,56.8,10,-736,-12,1007.55,57.3,87.7
"2019-04-20 20:46:45+00",15.3,18.3,,56.7,22,-642,-10,1007.74,57.1,56
"2019-04-20 20:51:45+00",17.6,24.6,,56.7,8,-737,-26,1007.66,56.9,35.5
"2019-04-20 20:56:45+00",18.2,26.2,,56.5,35,-765,-10,1007.68,56.8,51.1
"2019-04-20 21:01:45+00",17.1,22.1,,56.5,46,-734,-12,1007.57,56.7,69.6
"2019-04-20 21:06:45+00",19.6,24.6,,56.4,94,-842,-9,1007.62,56.7,62.7
"2019-04-20 21:11:45+00",21.5,27.5,,56.3,149,-918,-16,1007.75,56.6,46
"2019-04-20 21:16:45+00",18.0,23.0,,56.3,105,-780,-6,1007.78,56.6,63.1
"2019-04-20 21:21:45+00",17.8,20.8,,56.3,80,-752,-11,1007.9,56.5,71.1
"2019-04-20 21:26:45+00",20.3,26.3,,56.4,99,-863,-27,1007.86,56.6,67
"2019-04-20 21:31:45+00",19.9,24.9,,56.3,91,-849,-21,1007.91,56.5,69.4
"2019-04-20 21:36:45+00",22.1,29.1,,56.3,157,-933,-23,1007.84,56.5,48.7
"2019-04-20 21:41:45+00",21.2,25.2,,56,183,-885,-9,1007.76,56.3,33.9
"2019-04-20 21:46:45+00",22.8,25.8,,55.6,204,-938,-8,1007.76,55.8,28.3
"2019-04-20 21:51:45+00",20.4,25.4,,55.8,171,-849,-1,1007.86,55.9,45
"2019-04-20 21:56:45+00",21.5,27.5,,56.7,100,-919,-27,1007.94,56.5,37.6
"2019-04-20 22:01:45+00",22.5,26.5,,56.7,131,-956,-18,1008.07,56.7,66.6
"2019-04-20 22:06:45+00",21.7,28.7,,56.4,109,-905,1,1008.04,56.6,70.1
"2019-04-20 22:11:45+00",22.2,26.2,,56.3,72,-949,-29,1008.02,56.5,89.7
"2019-04-20 22:16:45+00",20.2,24.2,,56.6,58,-858,-22,1008.14,56.7,95.5
"2019-04-20 22:21:45+00",20.6,28.6,,56.6,57,-877,-18,1008.15,56.7,50.1
"2019-04-20 22:26:45+00",24.6,29.6,,56.5,111,-1046,-42,1008.19,56.5,57.8
"2019-04-20 22:31:45+00",19.3,22.3,,56.7,67,-823,-19,1008.4,56.7,27
"2019-04-20 22:36:45+00",19.6,25.6,,56.6,85,-841,-9,1008.29,56.5,59.9
"2019-04-20 22:41:45+00",26.1,31.1,,56.3,161,-1127,-17,1008.52,56.3,45.9
"2019-04-20 22:46:45+00",20.7,25.7,,55.8,121,-880,-1,1008.37,55.8,17.7
"2019-04-20 22:51:45+00",23.6,30.6,,55.6,130,-1018,-29,1008.59,55.7,6.9
"2019-04-20 22:56:45+00",21.3,28.3,,55.7,88,-900,-25,1008.58,55.6,37.6
"2019-04-20 23:01:45+00",20.7,24.7,,55.8,87,-872,-28,1008.52,55.7,23.2
"2019-04-20 23:06:45+00",20.3,24.3,,55.7,109,-857,-34,1008.67,55.7,21.5
"2019-04-20 23:11:45+00",18.2,24.2,,55.7,100,-768,-24,1008.56,55.6,3
"2019-04-20 23:16:45+00",17.6,23.6,,55.6,89,-757,-3,1008.6,55.5,0
"2019-04-20 23:21:45+00",17.8,22.8,,55.6,88,-773,-17,1008.56,55.4,0
"2019-04-20 23:26:45+00",18.1,23.1,,55.8,61,-760,-2,1008.56,55.6,0
"2019-04-20 23:31:45+00",17.2,21.2,,55.6,30,-722,-13,1008.65,55.4,0
"2019-04-20 23:36:45+00",16.0,19.0,,55.4,-15,-688,-6,1008.91,55.2,0
"2019-04-20 23:41:45+00",17.1,21.1,,55.6,-36,-719,-21,1009,55.3,0
"2019-04-20 23:46:45+00",14.7,20.7,,56,-62,-614,-2,1008.98,55.6,0
"2019-04-20 23:51:45+00",15.6,19.6,,56.1,-117,-655,-25,1009.07,55.7,0
"2019-04-20 23:56:45+00",16.4,21.4,,56.1,-141,-687,-24,1008.97,55.8,0
